STARLINK-33945, 64154

Orbit data source: Space-Track

STARLINK-33945, 64154 is a payload satellite owned by SpaceX/Seattle (US) in SSO that was launched on Tue, 27 May 2025 UTC via an FALCON 9 launch vehicle from the Air Force Western Test Range (AFWTR). Payload-class satellites include a variety of spacecraft equipped with specific instruments for various scientific and technological missions. These include communications satellites like Starlink; space stations such as the ISS; scientific satellites like the Hubble; Earth observation satellites from companies like Planet Labs, Umbra, and HawkEye 360; GPS; miniature CubeSats for education and research; and military/defense satellites.

Loading next visibility...
Identifier
64154, 2025-112J
Orbit
SSO
Country
Flag of USUS
Related business
Manufacturer
SpaceX/Seattle
Mission
Operational Commercial Communications
Bus & Motor
STARLINK V2MO, Unknown motor
Mass
575 kg wet, ~530 kg dry
Launch date (UTC)
2025-05-27 (1 year ago)
Launch vehicle
FALCON 9
Launch site
Air Force Western Test Range (AFWTR)
Object type
Payload
Rocket body
Debris
Shape & HBR
Box + 2 Pan, 17.7 m
Radar Cross Section
36.964 m², Large (>1 m²)

Expand to show TLE details & history
Last TLE update: 8 hours ago

TLE from 8 hours ago
0 STARLINK-33945
1 64154U 25112J   26145.40395295  .00005262  00000-0  36843-3 0  9998
2 64154  97.4473 205.2770 0001984 144.7677 215.3682 15.05653939 55404
Epoch: 2026-05-25T09:41Z
TLE epoch observation values (Epoch: 2026-05-25T09:41:41.534Z)
Latitude
-0.00002°
Longitude
176.86171°
Altitude
553.69 km
Speed
7.584 km/s
True Right ascension
13h 41m 06s
True Declination
0° 00' 00"
Sunlit
Object was in full shadow at epoch
Visualization orbit readout
Latitude
Unknown
Longitude
Unknown
Altitude
Unknown
Speed
Unknown
Apparent Right ascension
Unknown
Apparent Declination
Unknown
Sunlit
N/A
Visualization observer readout
Local Sidereal Time
02:49:20
Azimuth
Unknown
Elevation
Unknown
Doppler factor
Unknown
Orbital elements
Apogee altitude
547.86 km
Perigee altitude
545.112 km
Semi-major axis
6,924.623 km
Eccentricity
0.0002
Inclination
97.4473°
RAAN
205.277°
Arg. of periapsis
144.7677°
True anomaly
215.35504°
Mean anomaly
215.3682°
Eccentric anomaly
215.36162°
Mean motion
3.7666 °/min
Orbital period
95.58 mins
BSTAR
0.00036843
Loading maneuver chart data...
Computing Atmospheric mass density...
Loading historical data...
Loading historical data...
Loading historical data...
Loading historical data...
Loading historical data...
Loading historical data...
Loading historical data...

Documentation

Showing up to 5 results
|